Location: ???? ?????
(37.9132°N, 22.9869°E)
Time: 10:12:27
(UTC+00:00)

Milstar 3 - Pass Details

Date: 04 August 2024
Orbit: 1098 x 5146 km, 28.2° (Epoch: 18 September)

Event Time Altitude Azimuth Distance (km) Brightness Sun altitude
Rises 18:19:14 0° 248° (WSW) 4,112 6.4 -8.9°
Reaches altitude 10° 18:22:15 10° 241° (WSW) 3,001 5.5 -9.4°
Maximum altitude 18:28:22 38° 174° (S) 1,627 3.4 -10.5°
Enters shadow 18:34:18 13° 110° (ESE) 3,036 4.4 -11.5°
